{"data":{"norad_id":65604,"epoch":"2026-05-25T03:15:46.082592Z","epoch_age_seconds":73339,"freshness":"FRESH","line1":"1 65604U 25207N   26145.13595003 -.00004979  00000+0 -34137-3 0  9992","line2":"2 65604  97.4525 213.6394 0001616 134.4723 225.6637 15.05637253 39764","mean_motion":15.05637253,"eccentricity":0.0001616,"inclination_deg":97.4525,"raan_deg":213.6394,"arg_perigee_deg":134.4723,"mean_anomaly_deg":225.6637,"bstar":-0.00034137,"rev_number":3976,"period_min":95.640566619269,"perigee_km":548.43074021339,"apogee_km":550.66976873403,"semimajor_km":6927.6872544737,"source":"CELESTRAK","updated_at":"2026-05-25T13:38:20.854523Z"}}